If you wish to contribute or participate in the discussions about articles you are invited to join SKYbrary as a registered user

 Actions

Alferez Fap David Figueroa Fernandini Airport

From SKYbrary Wiki

SPNC
Airport
ICAO: SPNC – IATA: HUU
Summary
Name Alferez Fap David Figueroa Fernandini Airport
Region South America and Caribbean
Territory Peru PE.gif
Location Amarilis, Huánuco
Serving Huánuco
Elevation 1,850.136 m <br />6,070 ft <br />6,070 ft1,850.136 m <br />
Type medium airport
Coordinates 9° 52' 43.72" S, 76° 12' 17.27" W
Runways
Designator Length Width Surface ROPS
7/25 2500 m8,202.1 ft <br /> 30 m98.425 ft <br /> ASP /


METAR
Observation SPNC 152300Z 05006KT 9999 FEW040 25/12 Q1015 RMK PP000
Station Huanuco
Date/Time 15 October 2021 23:00:00
Wind direction 50°
Wind speed 06 kts
Lowest cloud amount few clouds
Temperature 25°C
Dew point 12°C
Humidity 44%
QNH 1015 hPa
Weather condition n/a

Airport serving Huánuco, Peru. It is the most important airport in the Huánuco Region and is operated by the civil government.

Climatology

Warm Semi-arid climate (Köppen climate classification BSh).

Maps

Terrain

Loading map...

Airport Layout

Loading map...


Accidents & Serious Incidents at or in vicinity of SPNC

None on SKYbrary